This is the latest recevied weather packets stored in our database for station/object NK7E-2. If no packets are shown the sender has not sent any weather packets the latest 10 day(s).
| Time | Temp. | Humidity | Pressure | Rain* | Wind** | Luminosity | Snow |
|---|---|---|---|---|---|---|---|
| 1777083316 | 25° C | 16% | 1016.3 hPa | 0 mm | - | - | - |
| 1777082716 | 25.56° C | 16% | 1016.1 hPa | 0 mm | - | - | - |
| 1777082116 | 25.56° C | 16% | 1015.1 hPa | 0 mm | - | - | - |
| 1777081516 | 26.11° C | 16% | 1015.1 hPa | 0 mm | - | - | - |
| 1777080916 | 26.11° C | 15% | 1015.3 hPa | 0 mm | - | - | - |
| 1777080316 | 26.67° C | 14% | 1015.6 hPa | 0 mm | - | - | - |
| 1777079716 | 27.22° C | 14% | 1016 hPa | 0 mm | - | - | - |
| 1777079116 | 27.22° C | 13% | 1016 hPa | 0 mm | - | - | - |
| 1777078516 | 27.22° C | 12% | 1016 hPa | 0 mm | - | - | - |
| 1777077916 | 27.22° C | 12% | 1016.3 hPa | 0 mm | - | - | - |
| 1777077316 | 27.22° C | 12% | 1016.4 hPa | 0 mm | - | - | - |
| 1777076716 | 27.78° C | 11% | 1016.8 hPa | 0 mm | - | - | - |
| 1777076116 | 27.78° C | 11% | 1016.7 hPa | 0 mm | - | - | - |
| 1777075516 | 27.78° C | 11% | 1016.8 hPa | 0 mm | - | - | - |
| 1777074916 | 28.33° C | 11% | 1017 hPa | 0 mm | - | - | - |
| 1777074316 | 28.33° C | 11% | 1016.7 hPa | 0 mm | - | - | - |
| 1777073716 | 28.33° C | 11% | 1016.5 hPa | 0 mm | - | - | - |
| 1777073116 | 28.33° C | 11% | 1016.6 hPa | 0 mm | - | - | - |
| 1777072516 | 28.89° C | 11% | 1016.9 hPa | 0 mm | - | - | - |
| 1777071916 | 28.89° C | 11% | 1017 hPa | 0 mm | - | - | - |
| 1777071316 | 28.89° C | 11% | 1017 hPa | 0 mm | - | - | - |
| 1777070716 | 28.33° C | 11% | 1016.8 hPa | 0 mm | - | - | - |
| 1777070116 | 28.33° C | 11% | 1016.9 hPa | 0 mm | - | - | - |
| 1777069516 | 28.89° C | 11% | 1017.3 hPa | 0 mm | - | - | - |
| 1777068916 | 28.33° C | 11% | 1017.2 hPa | 0 mm | - | - | - |
* Rain latest hour (hover to see other rain measurements)
** Current wind speed in m/s (hover to see current wind gust speed)